Regional Weather Roundup
Issued by NWS Sioux Falls, SD

Home | Current Version | Previous Version | Text Only | Print | Product List | Glossary On
Versions: 1 2 3 4 5 6 7 8 9 10 11 12 13 14 15 16 17 18 19 20 21 22 23 24 25 26 27 28 29 30 31 32 33 34 35 36 37 38 39 40 41 42 43 44 45 46 47 48 49 50
000
ASUS43 KFSD 202210
RWRFSD

WEATHER ROUNDUP FOR SE SOUTH DAKOTA/SW MINNESOTA/NW IOWA
NATIONAL WEATHER SERVICE SIOUX FALLS SD
400 PM CST TUE FEB 20 2018

NOTE: "FAIR" INDICATES FEW OR NO CLOUDS BELOW 12,000 FEET WITH NO
SIGNIFICANT WEATHER AND OR OBSTRUCTIONS TO VISIBILITY.


SDZ038>040-050-052>070-202300-
SOUTHEAST SOUTH DAKOTA

CITY           SKY/WX    TMP DP  RH WIND       PRES   REMARKS
BROOKINGS      FAIR      10   1  67 NW18      30.17R WCI  -8
CHAMBERLAIN    FAIR      11   3  70 W14       30.25R WCI  -4
HURON          FAIR      12   2  64 NW18      30.24R WCI  -6
MADISON        FLURRIES   9   7  92 NW20      30.17R WCI -11
MITCHELL       FAIR      12   3  67 NW16      30.27R WCI  -5
SIOUX FALLS    FAIR      11   3  70 NW18      30.20R WCI  -7
WINNER         FAIR      10   0  63 NW15      30.23R WCI  -7
YANKTON        FAIR      11   4  73 NW18      30.27R WCI  -7
$$

MNZ071-072-080-081-089-090-097-098-202300-
SOUTHWEST MINNESOTA

CITY           SKY/WX    TMP DP  RH WIND       PRES   REMARKS
FAIRMONT       FAIR      13   7  77 NW18      30.14R WCI  -4
JACKSON        PTSUNNY   14   7  73 NW20G26   30.12R WCI  -3
LUVERNE        FAIR      12   5  73 NW18      30.19R WCI  -5
MARSHALL       FAIR      12   5  73 NW23      30.17R WCI  -7
MONTEVIDEO     FAIR      16   5  62 N14       30.19R WCI   1
PIPESTONE      FAIR      10   3  72 NW18      30.14R WCI  -8
REDWOOD FALLS  CLOUDY    13   5  70 W18G26    30.15R WCI  -4
TRACY          FAIR      13   7  76 NW17      30.15R WCI  -4
WINDOM         PTSUNNY   12  -2  52 CALM      30.13R HAZE
WORTHINGTON    FAIR      13   6  74 NW18      30.14R WCI  -4
$$

IAZ001>003-012>014-020>022-031-032-NEZ013-014-SDZ071-202300-
NORTHWEST IOWA

CITY           SKY/WX    TMP DP  RH WIND       PRES   REMARKS
CHEROKEE       PTSUNNY   16  11  80 NW15G21   30.19R WCI   1
DENISON        CLOUDY    16  10  79 NW18      30.21R WCI  -1
ESTHERVILLE    FAIR      14   7  73 NW23      30.13R WCI  -5
LE MARS        CLOUDY    14   7  73 NW16G23   30.22R WCI  -2
ORANGE CITY    PTSUNNY   14   9  79 NW17G25   30.19R WCI  -3
SHELDON        CLOUDY    14   7  73 NW20G28   30.17R WCI  -3
SIOUX CITY     CLOUDY    14   7  73 NW23      30.24R WCI  -5
SPENCER        FAIR      16   9  74 NW21G26   30.15R WCI  -1
STORM LAKE     FLURRIES  14   9  79 NW18G25   30.17R WCI  -3
$$

ABBREVIATIONS USED IN REMARKS
   TC - TEMPERATURE IN CELSIUS
  WCI - WIND CHILL INDEX
   HX - HEAT INDEX
  VSB - VISIBILITY





USA.gov is the U.S. government's official web portal to all federal, state and local government web resources and services.